Regional Weather Roundup
Issued by NWS

Home | Current Version | Previous Version | Text Only | Print | Product List | Glossary Off
Versions: 1 2 3 4 5 6 7 8 9 10 11 12 13 14 15 16 17 18 19 20 21 22 23 24 25 26 27 28 29 30 31 32 33 34 35 36 37 38 39 40 41 42 43 44 45 46 47 48 49 50

000
ASUS45 KSLC 282210
RWRUT

UTAH REGIONAL WEATHER ROUNDUP
NATIONAL WEATHER SERVICE SALT LAKE CITY UT
300 PM MST SAT FEB 28 2015

UTZ001>011-023>025-282300-

NORTHERN UTAH

CITY           SKY/WX    TMP DP  RH WIND       PRES   REMARKS
BRIGHAM CITY   CLOUDY    46  16  30 E12       29.71S
HILL AFB       CLOUDY    41  17  38 E17       29.69S
LOGAN          SUNNY     44  16  32 SE13      29.72S
OGDEN          CLOUDY    44  18  35 N8        29.69S
PROVO AIRPORT  CLOUDY    39  28  65 W7        29.69R WCI  34
SALT LAKE CITY CLOUDY    43  22  43 SE6       29.69R
VERNAL         CLOUDY    41  18  39 W5        29.72S
WENDOVER       CLOUDY    43  25  49 N12G17    29.73S
HEBER CITY     LGT SNOW  32  28  86 S3        29.70S
WEST JORDAN    CLOUDY    39  30  70 CALM      29.70R

$$

UTZ012>022-026-027-282300-

SOUTHERN/CENTRAL UTAH

CITY           SKY/WX    TMP DP  RH WIND       PRES   REMARKS
BLANDING       CLOUDY    32  32  99 SE8       29.84R VSB 1/4 WCI  25
CEDAR CITY     CLOUDY    33  31  92 W10       29.70R WCI  25
DELTA          CLOUDY    37  33  84 SW6       29.70R WCI  33
HANKSVILLE     PTSUNNY   41  34  75 N12       29.73S
MILFORD        CLOUDY    39  32  76 S16       29.68R WCI  30
MOAB/CYNLANDS  CLOUDY    38  31  76 E9        29.72R WCI  31
PRICE          FLURRIES  36  30  79 S6        29.69S WCI  31
ST GEORGE      CLOUDY    50  37  62 NW5       29.74S
KANAB          PTSUNNY   46  23  39 SW20      29.74R

$$

REGIONAL REPORTS     COLORADO/ARIZONA

CITY           SKY/WX    TMP DP  RH WIND       PRES   REMARKS
CRAIG, CO      NOT AVBL
GRAND JUNCTION PTSUNNY   40  25  55 S15       29.71F WCI  32
RIFLE          CLOUDY    41  16  36 VRB5      29.71F
MONTROSE       CLOUDY    33  29  85 E3        29.75F
CORTEZ         SNOW      33  32  96 NW6       29.79R VSB 1/2 WCI  28
PAGE, AZ       CLOUDY    46  36  68 CALM      29.72R
GRAND CANYON   FLURRIES  36  31  82 SW22G32   29.77R WCI  25
KINGMAN        CLOUDY    56  33  42 S23G29    29.75S
FLAGSTAFF      LGT SNOW  37  31  78 SW22G33   29.80R WCI  26

$$

REGIONAL REPORTS    NEVADA/IDAHO/WYOMING

CITY           SKY/WX    TMP DP  RH WIND       PRES   REMARKS
LAS VEGAS, NV  MOSUNNY   61  24  24 S23G32    29.65F
ELY            CLOUDY    34  28  79 W7        29.67R WCI  28
ELKO           CLOUDY    38  31  76 NE13      29.71R WCI  30
POCATELLO, ID  MOSUNNY   46  17  31 N13G21    29.76S
BURLEY         PTSUNNY   45  17  32 E9        29.75F
EVANSTON, WY   CLOUDY    28  17  63 E14       29.72S WCI  17
ROCK SPRINGS   PTSUNNY   25  13  60 NE17G23   29.77F WCI  12
KEMMERER       PTSUNNY   30  14  51 NE14G21   29.74R WCI  20

$$


USA.gov is the U.S. government's official web portal to all federal, state and local government web resources and services.